Time,TemperatureF,DewpointF,PressureIn,WindDirection,WindDirectionDegrees,WindSpeedMPH,WindSpeedGustMPH,Humidity,HourlyPrecipIn,Conditions,Clouds,dailyrainin,SoftwareType,DateUTC
2013-05-21 00:00:00,65.2,57.9,29.69,SW,225,3.6,7.2,77,0.00,,---,0.00,VWS V14.01,2013-05-21 05:00:00,
2013-05-21 00:05:00,65.3,58.0,29.68,SW,225,3.6,9.0,77,0.00,,---,0.00,VWS V14.01,2013-05-21 05:05:00,
2013-05-21 00:10:00,65.2,57.9,29.67,SW,225,3.6,7.2,77,0.00,,---,0.00,VWS V14.01,2013-05-21 05:10:00,
2013-05-21 00:15:00,65.0,57.7,29.67,SW,225,1.8,10.8,77,0.00,,---,0.00,VWS V14.01,2013-05-21 05:15:00,
2013-05-21 00:20:00,64.9,57.9,29.67,SSW,202,3.6,10.8,78,0.00,,---,0.00,VWS V14.01,2013-05-21 05:20:00,
2013-05-21 00:25:00,64.8,57.8,29.66,SSW,202,3.6,12.6,78,0.00,,---,0.00,VWS V14.01,2013-05-21 05:25:00,
2013-05-21 00:30:00,64.8,57.8,29.66,SW,225,5.4,12.6,78,0.00,,---,0.00,VWS V14.01,2013-05-21 05:30:00,
2013-05-21 00:35:00,64.8,57.8,29.65,SW,225,3.6,10.8,78,0.00,,---,0.00,VWS V14.01,2013-05-21 05:35:00,
2013-05-21 00:40:00,65.0,58.0,29.66,SSW,202,5.4,19.8,78,0.00,,---,0.00,VWS V14.01,2013-05-21 05:40:00,
2013-05-21 00:45:00,65.2,57.9,29.67,SW,225,5.4,12.6,77,0.00,,---,0.00,VWS V14.01,2013-05-21 05:45:00,
2013-05-21 00:50:00,65.3,58.0,29.66,SSW,202,5.4,12.6,77,0.00,,---,0.00,VWS V14.01,2013-05-21 05:50:00,
2013-05-21 00:55:00,65.4,58.1,29.67,SW,225,5.4,10.8,77,0.00,,---,0.00,VWS V14.01,2013-05-21 05:55:00,
2013-05-21 01:00:00,65.5,57.8,29.67,SW,225,5.4,10.8,76,0.00,,---,0.00,VWS V14.01,2013-05-21 06:00:00,
2013-05-21 01:05:00,65.6,57.9,29.67,SSW,202,7.2,14.4,76,0.00,,---,0.00,VWS V14.01,2013-05-21 06:05:00,
2013-05-21 01:10:00,65.6,58.3,29.67,SW,225,5.4,16.2,77,0.00,,---,0.00,VWS V14.01,2013-05-21 06:10:00,
2013-05-21 01:15:00,65.6,58.3,29.66,SW,225,3.6,9.0,77,0.00,,---,0.00,VWS V14.01,2013-05-21 06:15:00,
2013-05-21 01:20:00,65.4,58.1,29.66,SW,225,3.6,14.4,77,0.00,,---,0.00,VWS V14.01,2013-05-21 06:20:00,
2013-05-21 01:25:00,65.4,58.1,29.66,SW,225,3.6,12.6,77,0.00,,---,0.00,VWS V14.01,2013-05-21 06:25:00,
2013-05-21 01:30:00,65.4,58.1,29.65,SW,225,5.4,14.4,77,0.00,,---,0.00,VWS V14.01,2013-05-21 06:30:00,
2013-05-21 01:35:00,65.4,58.4,29.65,SSW,202,3.6,14.4,78,0.00,,---,0.00,VWS V14.01,2013-05-21 06:35:00,
2013-05-21 01:40:00,65.3,58.3,29.65,SW,225,3.6,12.6,78,0.00,,---,0.00,VWS V14.01,2013-05-21 06:40:00,
2013-05-21 01:45:00,65.2,58.2,29.65,SW,225,5.4,16.2,78,0.00,,---,0.00,VWS V14.01,2013-05-21 06:45:00,
2013-05-21 01:50:00,65.1,58.5,29.64,SSW,202,3.6,12.6,79,0.00,,---,0.00,VWS V14.01,2013-05-21 06:50:00,
2013-05-21 01:55:00,65.0,58.3,29.64,SW,225,3.6,9.0,79,0.00,,---,0.00,VWS V14.01,2013-05-21 06:55:00,
2013-05-21 02:00:00,64.9,58.3,29.64,SSW,202,5.4,14.4,79,0.00,,---,0.00,VWS V14.01,2013-05-21 07:00:00,
2013-05-21 02:05:00,64.8,58.2,29.63,SW,225,5.4,14.4,79,0.00,,---,0.00,VWS V14.01,2013-05-21 07:05:00,
2013-05-21 02:10:00,64.7,58.4,29.64,SSW,202,3.6,12.6,80,0.00,,---,0.00,VWS V14.01,2013-05-21 07:10:00,
2013-05-21 02:15:00,64.7,58.4,29.64,SW,225,5.4,19.8,80,0.00,,---,0.00,VWS V14.01,2013-05-21 07:15:00,
2013-05-21 02:20:00,64.7,58.4,29.64,SW,225,5.4,19.8,80,0.00,,---,0.00,VWS V14.01,2013-05-21 07:20:00,
2013-05-21 02:25:00,64.6,58.3,29.64,SW,225,5.4,16.2,80,0.00,,---,0.00,VWS V14.01,2013-05-21 07:25:00,
2013-05-21 02:30:00,64.5,58.2,29.63,SW,225,5.4,14.4,80,0.00,,---,0.00,VWS V14.01,2013-05-21 07:30:00,
2013-05-21 02:35:00,64.4,58.1,29.62,SW,225,5.4,14.4,80,0.00,,---,0.00,VWS V14.01,2013-05-21 07:35:00,
2013-05-21 02:40:00,64.3,58.3,29.62,SSW,202,7.2,16.2,81,0.00,,---,0.00,VWS V14.01,2013-05-21 07:40:00,
2013-05-21 02:45:00,64.3,58.0,29.61,SW,225,7.2,18.0,80,0.00,,---,0.00,VWS V14.01,2013-05-21 07:45:00,
2013-05-21 02:50:00,64.3,58.0,29.60,SSW,202,5.4,16.2,80,0.00,,---,0.00,VWS V14.01,2013-05-21 07:50:00,
2013-05-21 02:55:00,64.2,57.9,29.60,SSW,202,7.2,12.6,80,0.00,,---,0.00,VWS V14.01,2013-05-21 07:55:00,
2013-05-21 03:00:00,64.1,58.1,29.61,SW,225,3.6,9.0,81,0.00,,---,0.00,VWS V14.01,2013-05-21 08:00:00,
2013-05-21 03:05:00,64.0,58.0,29.61,SW,225,5.4,14.4,81,0.00,,---,0.00,VWS V14.01,2013-05-21 08:05:00,
2013-05-21 03:10:00,64.0,58.0,29.61,SW,225,5.4,12.6,81,0.00,,---,0.00,VWS V14.01,2013-05-21 08:10:00,
2013-05-21 03:15:00,63.9,57.9,29.62,SW,225,3.6,9.0,81,0.00,,---,0.00,VWS V14.01,2013-05-21 08:15:00,
2013-05-21 03:20:00,63.8,57.8,29.62,SSW,202,7.2,21.6,81,0.00,,---,0.00,VWS V14.01,2013-05-21 08:20:00,
2013-05-21 03:25:00,63.8,57.8,29.62,SW,225,5.4,10.8,81,0.00,,---,0.00,VWS V14.01,2013-05-21 08:25:00,
2013-05-21 03:30:00,63.7,58.0,29.62,SW,225,5.4,16.2,82,0.00,,---,0.00,VWS V14.01,2013-05-21 08:30:00,
2013-05-21 03:35:00,63.6,58.0,29.63,SW,225,5.4,16.2,82,0.00,,---,0.00,VWS V14.01,2013-05-21 08:35:00,
2013-05-21 03:40:00,63.6,58.0,29.63,WSW,248,5.4,14.4,82,0.00,,---,0.00,VWS V14.01,2013-05-21 08:40:00,
2013-05-21 03:45:00,63.5,57.9,29.63,SSW,202,7.2,16.2,82,0.00,,---,0.00,VWS V14.01,2013-05-21 08:45:00,
2013-05-21 03:50:00,63.5,57.9,29.63,SW,225,5.4,16.2,82,0.00,,---,0.00,VWS V14.01,2013-05-21 08:50:00,
2013-05-21 03:55:00,63.5,58.2,29.63,SW,225,7.2,16.2,83,0.00,,---,0.00,VWS V14.01,2013-05-21 08:55:00,
2013-05-21 04:00:00,63.4,58.1,29.63,SSW,202,7.2,16.2,83,0.00,,---,0.00,VWS V14.01,2013-05-21 09:00:00,
2013-05-21 04:05:00,63.3,58.0,29.63,SW,225,5.4,14.4,83,0.00,,---,0.00,VWS V14.01,2013-05-21 09:05:00,
2013-05-21 04:10:00,63.3,58.0,29.63,SSW,202,5.4,12.6,83,0.00,,---,0.00,VWS V14.01,2013-05-21 09:10:00,
2013-05-21 04:15:00,63.2,57.9,29.63,SW,225,3.6,9.0,83,0.00,,---,0.00,VWS V14.01,2013-05-21 09:15:00,
2013-05-21 04:20:00,63.1,57.8,29.64,SW,225,3.6,12.6,83,0.00,,---,0.00,VWS V14.01,2013-05-21 09:20:00,
2013-05-21 04:25:00,63.1,58.1,29.64,SSW,202,5.4,16.2,84,0.00,,---,0.00,VWS V14.01,2013-05-21 09:25:00,
2013-05-21 04:30:00,63.1,58.1,29.64,SW,225,5.4,14.4,84,0.00,,---,0.00,VWS V14.01,2013-05-21 09:30:00,
2013-05-21 04:35:00,63.0,58.0,29.64,SW,225,5.4,14.4,84,0.00,,---,0.00,VWS V14.01,2013-05-21 09:35:00,
2013-05-21 04:40:00,63.0,58.0,29.64,SW,225,5.4,14.4,84,0.00,,---,0.00,VWS V14.01,2013-05-21 09:40:00,
2013-05-21 04:45:00,63.0,58.0,29.64,SW,225,5.4,12.6,84,0.00,,---,0.00,VWS V14.01,2013-05-21 09:45:00,
2013-05-21 04:50:00,62.9,57.9,29.64,SW,225,5.4,18.0,84,0.00,,---,0.00,VWS V14.01,2013-05-21 09:50:00,
2013-05-21 04:55:00,62.8,57.8,29.64,SSW,202,5.4,14.4,84,0.00,,---,0.00,VWS V14.01,2013-05-21 09:55:00,
2013-05-21 05:00:00,62.8,57.8,29.64,SW,225,3.6,10.8,84,0.00,,---,0.00,VWS V14.01,2013-05-21 10:00:00,
2013-05-21 05:05:00,62.8,57.8,29.64,SW,225,5.4,18.0,84,0.00,,---,0.00,VWS V14.01,2013-05-21 10:05:00,
2013-05-21 05:10:00,62.7,58.0,29.64,SW,225,5.4,12.6,85,0.00,,---,0.00,VWS V14.01,2013-05-21 10:10:00,
2013-05-21 05:15:00,62.7,58.0,29.64,SW,225,5.4,16.2,85,0.00,,---,0.00,VWS V14.01,2013-05-21 10:15:00,
2013-05-21 05:20:00,62.7,58.0,29.64,SW,225,5.4,19.8,85,0.00,,---,0.00,VWS V14.01,2013-05-21 10:20:00,
2013-05-21 05:25:00,62.6,57.9,29.64,SW,225,5.4,14.4,85,0.00,,---,0.00,VWS V14.01,2013-05-21 10:25:00,
2013-05-21 05:30:00,62.6,57.9,29.64,SW,225,5.4,16.2,85,0.00,,---,0.00,VWS V14.01,2013-05-21 10:30:00,
2013-05-21 05:35:00,62.5,57.8,29.64,SW,225,5.4,10.8,85,0.00,,---,0.00,VWS V14.01,2013-05-21 10:35:00,
2013-05-21 05:40:00,62.4,57.7,29.64,SW,225,3.6,9.0,85,0.00,,---,0.00,VWS V14.01,2013-05-21 10:40:00,
2013-05-21 05:45:00,62.4,58.0,29.65,SW,225,5.4,14.4,86,0.00,,---,0.00,VWS V14.01,2013-05-21 10:45:00,
2013-05-21 05:50:00,62.4,58.0,29.65,SW,225,5.4,18.0,86,0.00,,---,0.00,VWS V14.01,2013-05-21 10:50:00,
2013-05-21 05:55:00,62.4,58.0,29.65,South,180,7.2,14.4,86,0.00,,---,0.00,VWS V14.01,2013-05-21 10:55:00,
2013-05-21 06:00:00,62.5,58.1,29.65,SW,225,7.2,16.2,86,0.00,,---,0.00,VWS V14.01,2013-05-21 11:00:00,
2013-05-21 06:05:00,62.6,58.2,29.65,SW,225,5.4,10.8,86,0.00,,---,0.00,VWS V14.01,2013-05-21 11:05:00,
2013-05-21 06:10:00,62.7,58.3,29.65,SSW,202,5.4,12.6,86,0.00,,---,0.00,VWS V14.01,2013-05-21 11:10:00,
2013-05-21 06:15:00,62.9,58.2,29.65,WSW,248,5.4,14.4,85,0.00,,---,0.00,VWS V14.01,2013-05-21 11:15:00,
2013-05-21 06:20:00,63.0,58.3,29.66,SW,225,5.4,19.8,85,0.00,,---,0.00,VWS V14.01,2013-05-21 11:20:00,
2013-05-21 06:25:00,63.2,58.5,29.65,SSW,202,5.4,18.0,85,0.00,,---,0.00,VWS V14.01,2013-05-21 11:25:00,
2013-05-21 06:30:00,63.3,58.6,29.65,SW,225,3.6,12.6,85,0.00,,---,0.00,VWS V14.01,2013-05-21 11:30:00,
2013-05-21 06:35:00,63.4,58.7,29.66,SW,225,5.4,16.2,85,0.00,,---,0.00,VWS V14.01,2013-05-21 11:35:00,
2013-05-21 06:40:00,63.5,58.8,29.66,SW,225,3.6,10.8,85,0.00,,---,0.00,VWS V14.01,2013-05-21 11:40:00,
2013-05-21 06:45:00,63.5,58.5,29.66,SW,225,3.6,14.4,84,0.00,,---,0.00,VWS V14.01,2013-05-21 11:45:00,
2013-05-21 06:50:00,63.6,58.6,29.65,SW,225,5.4,14.4,84,0.00,,---,0.00,VWS V14.01,2013-05-21 11:50:00,
2013-05-21 06:55:00,63.7,58.7,29.66,SW,225,5.4,14.4,84,0.00,,---,0.00,VWS V14.01,2013-05-21 11:55:00,
2013-05-21 07:00:00,63.8,58.8,29.65,SW,225,5.4,14.4,84,0.00,,---,0.00,VWS V14.01,2013-05-21 12:00:00,
2013-05-21 07:05:00,63.9,58.9,29.66,SW,225,3.6,12.6,84,0.00,,---,0.00,VWS V14.01,2013-05-21 12:05:00,
2013-05-21 07:10:00,64.0,59.0,29.65,West,270,5.4,14.4,84,0.00,,---,0.00,VWS V14.01,2013-05-21 12:10:00,
2013-05-21 07:15:00,64.1,59.1,29.65,SW,225,7.2,19.8,84,0.00,,---,0.00,VWS V14.01,2013-05-21 12:15:00,
2013-05-21 07:20:00,64.2,59.2,29.65,SW,225,5.4,12.6,84,0.00,,---,0.00,VWS V14.01,2013-05-21 12:20:00,
2013-05-21 07:25:00,64.4,59.0,29.65,SW,225,7.2,21.6,83,0.00,,---,0.00,VWS V14.01,2013-05-21 12:25:00,
2013-05-21 07:30:00,64.5,59.2,29.65,SW,225,5.4,18.0,83,0.00,,---,0.00,VWS V14.01,2013-05-21 12:30:00,
2013-05-21 07:35:00,64.7,59.3,29.65,SW,225,7.2,19.8,83,0.00,,---,0.00,VWS V14.01,2013-05-21 12:35:00,
2013-05-21 07:40:00,65.0,59.6,29.65,SW,225,5.4,16.2,83,0.00,,---,0.00,VWS V14.01,2013-05-21 12:40:00,
2013-05-21 07:45:00,65.2,59.5,29.65,SW,225,7.2,18.0,82,0.00,,---,0.00,VWS V14.01,2013-05-21 12:45:00,
2013-05-21 07:50:00,65.5,59.8,29.65,SW,225,7.2,16.2,82,0.00,,---,0.00,VWS V14.01,2013-05-21 12:50:00,
2013-05-21 07:55:00,65.6,59.6,29.65,SW,225,9.0,23.4,81,0.00,,---,0.00,VWS V14.01,2013-05-21 12:55:00,
2013-05-21 08:00:00,65.7,59.7,29.65,SW,225,7.2,18.0,81,0.00,,---,0.00,VWS V14.01,2013-05-21 13:00:00,
2013-05-21 08:05:00,65.8,59.8,29.65,SW,225,7.2,18.0,81,0.00,,---,0.00,VWS V14.01,2013-05-21 13:05:00,
2013-05-21 08:10:00,66.2,59.8,29.65,SW,225,5.4,14.4,80,0.00,,---,0.00,VWS V14.01,2013-05-21 13:10:00,
2013-05-21 08:15:00,66.4,60.0,29.65,SW,225,7.2,16.2,80,0.00,,---,0.00,VWS V14.01,2013-05-21 13:15:00,
2013-05-21 08:20:00,66.8,60.1,29.65,SW,225,5.4,14.4,79,0.00,,---,0.00,VWS V14.01,2013-05-21 13:20:00,
2013-05-21 08:25:00,67.2,60.5,29.65,SW,225,5.4,14.4,79,0.00,,---,0.00,VWS V14.01,2013-05-21 13:25:00,
2013-05-21 08:30:00,67.4,60.3,29.65,SSW,202,7.2,18.0,78,0.00,,---,0.00,VWS V14.01,2013-05-21 13:30:00,
2013-05-21 08:35:00,67.5,60.8,29.66,WSW,248,5.4,19.8,79,0.00,,---,0.00,VWS V14.01,2013-05-21 13:35:00,
2013-05-21 08:40:00,67.9,60.5,29.66,West,270,5.4,12.6,77,0.00,,---,0.00,VWS V14.01,2013-05-21 13:40:00,
2013-05-21 08:45:00,68.1,60.7,29.66,West,270,5.4,16.2,77,0.00,,---,0.00,VWS V14.01,2013-05-21 13:45:00,
2013-05-21 08:50:00,68.6,60.8,29.66,SW,225,5.4,14.4,76,0.00,,---,0.00,VWS V14.01,2013-05-21 13:50:00,
2013-05-21 08:55:00,68.9,61.1,29.67,SW,225,7.2,19.8,76,0.00,,---,0.00,VWS V14.01,2013-05-21 13:55:00,
2013-05-21 09:00:00,69.1,61.0,29.67,SW,225,5.4,18.0,75,0.00,,---,0.00,VWS V14.01,2013-05-21 14:00:00,
2013-05-21 09:05:00,69.3,61.2,29.67,SW,225,7.2,18.0,75,0.00,,---,0.00,VWS V14.01,2013-05-21 14:05:00,
2013-05-21 09:10:00,69.8,61.7,29.67,West,270,3.6,9.0,75,0.00,,---,0.00,VWS V14.01,2013-05-21 14:10:00,
2013-05-21 09:15:00,70.4,61.5,29.67,SW,225,5.4,12.6,73,0.00,,---,0.00,VWS V14.01,2013-05-21 14:15:00,
2013-05-21 09:20:00,70.9,61.6,29.67,SW,225,5.4,12.6,73,0.00,,---,0.00,VWS V14.01,2013-05-21 14:20:00,
2013-05-21 09:25:00,70.9,61.6,29.67,SW,225,7.2,19.8,73,0.00,,---,0.00,VWS V14.01,2013-05-21 14:25:00,
2013-05-21 09:30:00,71.0,61.4,29.67,SSW,202,7.2,18.0,72,0.00,,---,0.00,VWS V14.01,2013-05-21 14:30:00,
2013-05-21 09:35:00,71.4,61.4,29.67,SW,225,5.4,18.0,71,0.00,,---,0.00,VWS V14.01,2013-05-21 14:35:00,
2013-05-21 09:40:00,71.8,61.4,29.67,SW,225,5.4,16.2,70,0.00,,---,0.00,VWS V14.01,2013-05-21 14:40:00,
2013-05-21 09:45:00,72.3,61.1,29.67,SW,225,5.4,14.4,68,0.00,,---,0.00,VWS V14.01,2013-05-21 14:45:00,
2013-05-21 09:50:00,72.4,60.8,29.67,SSW,202,7.2,21.6,67,0.00,,---,0.00,VWS V14.01,2013-05-21 14:50:00,
2013-05-21 09:55:00,72.7,61.5,29.66,West,270,3.6,10.8,68,0.00,,---,0.00,VWS V14.01,2013-05-21 14:55:00,
2013-05-21 10:00:00,73.0,61.0,29.66,SSW,202,5.4,12.6,66,0.00,,---,0.00,VWS V14.01,2013-05-21 15:00:00,
2013-05-21 10:05:00,72.7,60.7,29.66,West,270,5.4,16.2,66,0.00,,---,0.00,VWS V14.01,2013-05-21 15:05:00,
2013-05-21 10:10:00,73.3,61.7,29.66,West,270,5.4,12.6,67,0.00,,---,0.00,VWS V14.01,2013-05-21 15:10:00,
2013-05-21 10:15:00,73.4,60.2,29.66,West,270,5.4,14.4,63,0.00,,---,0.00,VWS V14.01,2013-05-21 15:15:00,
2013-05-21 10:20:00,73.5,60.2,29.66,SW,225,5.4,19.8,63,0.00,,---,0.00,VWS V14.01,2013-05-21 15:20:00,
2013-05-21 10:25:00,73.8,60.1,29.66,WSW,248,5.4,16.2,62,0.00,,---,0.00,VWS V14.01,2013-05-21 15:25:00,
2013-05-21 10:30:00,73.9,60.2,29.66,West,270,5.4,16.2,62,0.00,,---,0.00,VWS V14.01,2013-05-21 15:30:00,
2013-05-21 10:35:00,74.6,59.6,29.66,West,270,5.4,14.4,60,0.00,,---,0.00,VWS V14.01,2013-05-21 15:35:00,
2013-05-21 10:40:00,74.8,59.8,29.66,WSW,248,5.4,14.4,60,0.00,,---,0.00,VWS V14.01,2013-05-21 15:40:00,
2013-05-21 10:45:00,75.1,59.2,29.66,WSW,248,5.4,16.2,58,0.00,,---,0.00,VWS V14.01,2013-05-21 15:45:00,
2013-05-21 10:50:00,75.1,60.1,29.67,SW,225,5.4,14.4,60,0.00,,---,0.00,VWS V14.01,2013-05-21 15:50:00,
2013-05-21 10:55:00,74.9,59.4,29.67,SW,225,9.0,21.6,59,0.00,,---,0.00,VWS V14.01,2013-05-21 15:55:00,
2013-05-21 11:00:00,74.1,59.1,29.67,WSW,248,5.4,9.0,60,0.00,,---,0.00,VWS V14.01,2013-05-21 16:00:00,
2013-05-21 11:05:00,74.1,59.5,29.66,West,270,5.4,10.8,60,0.00,,---,0.00,VWS V14.01,2013-05-21 16:05:00,
2013-05-21 11:10:00,74.4,58.5,29.67,WSW,248,7.2,19.8,58,0.00,,---,0.00,VWS V14.01,2013-05-21 16:10:00,
2013-05-21 11:15:00,74.9,59.0,29.67,West,270,5.4,18.0,58,0.00,,---,0.00,VWS V14.01,2013-05-21 16:15:00,
2013-05-21 11:20:00,75.0,59.1,29.67,WSW,248,5.4,14.4,58,0.00,,---,0.00,VWS V14.01,2013-05-21 16:20:00,
2013-05-21 11:25:00,75.3,58.9,29.67,SW,225,7.2,18.0,57,0.00,,---,0.00,VWS V14.01,2013-05-21 16:25:00,
2013-05-21 11:30:00,75.4,59.0,29.67,SW,225,9.0,23.4,57,0.00,,---,0.00,VWS V14.01,2013-05-21 16:30:00,
2013-05-21 11:35:00,75.6,59.6,29.67,SW,225,7.2,16.2,58,0.00,,---,0.00,VWS V14.01,2013-05-21 16:35:00,
2013-05-21 11:40:00,75.3,58.4,29.67,West,270,5.4,12.6,56,0.00,,---,0.00,VWS V14.01,2013-05-21 16:40:00,
2013-05-21 11:45:00,75.6,59.2,29.67,SW,225,7.2,16.2,57,0.00,,---,0.00,VWS V14.01,2013-05-21 16:45:00,
2013-05-21 11:50:00,75.5,59.1,29.67,WSW,248,5.4,16.2,57,0.00,,---,0.00,VWS V14.01,2013-05-21 16:50:00,
2013-05-21 11:55:00,75.4,58.5,29.66,SW,225,5.4,16.2,56,0.00,,---,0.00,VWS V14.01,2013-05-21 16:55:00,
2013-05-21 12:00:00,75.6,58.7,29.67,West,270,5.4,16.2,56,0.00,,---,0.00,VWS V14.01,2013-05-21 17:00:00,
2013-05-21 12:05:00,74.9,58.5,29.66,West,270,5.4,12.6,57,0.00,,---,0.00,VWS V14.01,2013-05-21 17:05:00,
2013-05-21 12:10:00,75.6,58.7,29.67,SW,225,3.6,10.8,56,0.00,,---,0.00,VWS V14.01,2013-05-21 17:10:00,
2013-05-21 12:15:00,75.4,57.6,29.67,West,270,9.0,19.8,54,0.00,,---,0.00,VWS V14.01,2013-05-21 17:15:00,
2013-05-21 12:20:00,75.8,58.4,29.67,SW,225,7.2,19.8,55,0.00,,---,0.00,VWS V14.01,2013-05-21 17:20:00,
2013-05-21 12:25:00,76.1,58.2,29.67,West,270,7.2,19.8,54,0.00,,---,0.00,VWS V14.01,2013-05-21 17:25:00,
2013-05-21 12:30:00,75.6,57.8,29.67,WSW,248,5.4,10.8,54,0.00,,---,0.00,VWS V14.01,2013-05-21 17:30:00,
2013-05-21 12:35:00,75.8,57.5,29.67,WSW,248,5.4,14.4,53,0.00,,---,0.00,VWS V14.01,2013-05-21 17:35:00,
2013-05-21 12:40:00,76.5,58.1,29.67,SW,225,7.2,23.4,53,0.00,,---,0.00,VWS V14.01,2013-05-21 17:40:00,
2013-05-21 12:45:00,76.7,57.3,29.67,West,270,7.2,21.6,51,0.00,,---,0.00,VWS V14.01,2013-05-21 17:45:00,
2013-05-21 12:50:00,77.3,58.4,29.67,West,270,5.4,14.4,52,0.00,,---,0.00,VWS V14.01,2013-05-21 17:50:00,
2013-05-21 12:55:00,76.7,56.8,29.67,WSW,248,5.4,12.6,50,0.00,,---,0.00,VWS V14.01,2013-05-21 17:55:00,
2013-05-21 13:00:00,76.1,56.8,29.67,WSW,248,5.4,14.4,51,0.00,,---,0.00,VWS V14.01,2013-05-21 18:00:00,
2013-05-21 13:05:00,76.4,57.0,29.67,West,270,3.6,14.4,51,0.00,,---,0.00,VWS V14.01,2013-05-21 18:05:00,
2013-05-21 13:10:00,76.8,57.4,29.67,WSW,248,5.4,9.0,51,0.00,,---,0.00,VWS V14.01,2013-05-21 18:10:00,
2013-05-21 13:15:00,77.4,56.9,29.67,WSW,248,7.2,19.8,49,0.00,,---,0.00,VWS V14.01,2013-05-21 18:15:00,
2013-05-21 13:20:00,77.7,57.7,29.67,SW,225,5.4,14.4,50,0.00,,---,0.00,VWS V14.01,2013-05-21 18:20:00,
2013-05-21 13:25:00,77.5,56.5,29.68,SW,225,7.2,10.8,48,0.00,,---,0.00,VWS V14.01,2013-05-21 18:25:00,
2013-05-21 13:30:00,77.8,57.8,29.67,WSW,248,5.4,18.0,50,0.00,,---,0.00,VWS V14.01,2013-05-21 18:30:00,
2013-05-21 13:35:00,77.7,57.2,29.67,WSW,248,5.4,12.6,49,0.00,,---,0.00,VWS V14.01,2013-05-21 18:35:00,
2013-05-21 13:40:00,77.5,58.0,29.68,West,270,3.6,9.0,51,0.00,,---,0.00,VWS V14.01,2013-05-21 18:40:00,
2013-05-21 13:45:00,77.7,57.7,29.67,WSW,248,5.4,9.0,50,0.00,,---,0.00,VWS V14.01,2013-05-21 18:45:00,
2013-05-21 13:50:00,77.9,57.4,29.67,West,270,3.6,14.4,49,0.00,,---,0.00,VWS V14.01,2013-05-21 18:50:00,
2013-05-21 13:55:00,78.2,57.7,29.67,West,270,3.6,10.8,49,0.00,,---,0.00,VWS V14.01,2013-05-21 18:55:00,
2013-05-21 14:00:00,78.0,57.0,29.67,West,270,7.2,14.4,48,0.00,,---,0.00,VWS V14.01,2013-05-21 19:00:00,
2013-05-21 14:05:00,78.0,57.0,29.68,West,270,5.4,12.6,48,0.00,,---,0.00,VWS V14.01,2013-05-21 19:05:00,
2013-05-21 14:10:00,77.9,56.9,29.67,WSW,248,5.4,14.4,48,0.00,,---,0.00,VWS V14.01,2013-05-21 19:10:00,
2013-05-21 14:15:00,78.3,57.2,29.67,West,270,3.6,9.0,48,0.00,,---,0.00,VWS V14.01,2013-05-21 19:15:00,
2013-05-21 14:20:00,78.1,58.1,29.67,WNW,292,5.4,12.6,50,0.00,,---,0.00,VWS V14.01,2013-05-21 19:20:00,
2013-05-21 14:25:00,78.6,57.5,29.67,WSW,248,3.6,10.8,48,0.00,,---,0.00,VWS V14.01,2013-05-21 19:25:00,
2013-05-21 14:30:00,78.6,57.0,29.66,West,270,7.2,12.6,47,0.00,,---,0.00,VWS V14.01,2013-05-21 19:30:00,
2013-05-21 14:35:00,78.4,57.3,29.67,West,270,5.4,16.2,48,0.00,,---,0.00,VWS V14.01,2013-05-21 19:35:00,
2013-05-21 14:40:00,78.5,57.9,29.66,West,270,5.4,16.2,49,0.00,,---,0.00,VWS V14.01,2013-05-21 19:40:00,
2013-05-21 14:45:00,78.7,57.6,29.66,WSW,248,5.4,10.8,48,0.00,,---,0.00,VWS V14.01,2013-05-21 19:45:00,
2013-05-21 14:50:00,79.1,56.9,29.66,WSW,248,3.6,12.6,46,0.00,,---,0.00,VWS V14.01,2013-05-21 19:50:00,
2013-05-21 14:55:00,78.8,56.6,29.66,West,270,5.4,12.6,46,0.00,,---,0.00,VWS V14.01,2013-05-21 19:55:00,
2013-05-21 15:00:00,78.6,57.0,29.66,West,270,5.4,14.4,47,0.00,,---,0.00,VWS V14.01,2013-05-21 20:00:00,
2013-05-21 15:05:00,78.8,57.1,29.66,West,270,3.6,16.2,47,0.00,,---,0.00,VWS V14.01,2013-05-21 20:05:00,
2013-05-21 15:10:00,78.9,56.7,29.67,West,270,7.2,27.0,46,0.00,,---,0.00,VWS V14.01,2013-05-21 20:10:00,
2013-05-21 15:15:00,78.7,56.5,29.67,WSW,248,5.4,12.6,46,0.00,,---,0.00,VWS V14.01,2013-05-21 20:15:00,
2013-05-21 15:20:00,78.7,56.5,29.67,WSW,248,5.4,10.8,46,0.00,,---,0.00,VWS V14.01,2013-05-21 20:20:00,
2013-05-21 15:25:00,78.9,56.7,29.66,West,270,5.4,14.4,46,0.00,,---,0.00,VWS V14.01,2013-05-21 20:25:00,
2013-05-21 15:30:00,79.0,57.3,29.66,WSW,248,5.4,10.8,47,0.00,,---,0.00,VWS V14.01,2013-05-21 20:30:00,
2013-05-21 15:35:00,78.9,57.2,29.66,West,270,5.4,12.6,47,0.00,,---,0.00,VWS V14.01,2013-05-21 20:35:00,
2013-05-21 15:40:00,79.1,58.0,29.66,WSW,248,3.6,14.4,48,0.00,,---,0.00,VWS V14.01,2013-05-21 20:40:00,
2013-05-21 15:45:00,79.3,57.0,29.66,SW,225,5.4,14.4,46,0.00,,---,0.00,VWS V14.01,2013-05-21 20:45:00,
2013-05-21 15:50:00,79.5,57.8,29.66,WSW,248,3.6,10.8,47,0.00,,---,0.00,VWS V14.01,2013-05-21 20:50:00,
2013-05-21 15:55:00,79.6,56.2,29.66,SW,225,5.4,23.4,45,0.00,,---,0.00,VWS V14.01,2013-05-21 20:55:00,
2013-05-21 16:00:00,79.3,57.0,29.66,West,270,5.4,12.6,46,0.00,,---,0.00,VWS V14.01,2013-05-21 21:00:00,
2013-05-21 16:05:00,78.9,56.7,29.66,SW,225,5.4,9.0,46,0.00,,---,0.00,VWS V14.01,2013-05-21 21:05:00,
2013-05-21 16:10:00,78.4,56.2,29.66,West,270,3.6,12.6,46,0.00,,---,0.00,VWS V14.01,2013-05-21 21:10:00,
2013-05-21 16:15:00,78.0,56.4,29.66,WSW,248,5.4,10.8,47,0.00,,---,0.00,VWS V14.01,2013-05-21 21:15:00,
2013-05-21 16:20:00,78.1,57.0,29.66,WSW,248,5.4,9.0,48,0.00,,---,0.00,VWS V14.01,2013-05-21 21:20:00,
2013-05-21 16:25:00,77.9,56.9,29.66,SSW,202,9.0,19.8,48,0.00,,---,0.00,VWS V14.01,2013-05-21 21:25:00,
2013-05-21 16:30:00,77.6,56.6,29.66,SW,225,7.2,16.2,48,0.00,,---,0.00,VWS V14.01,2013-05-21 21:30:00,
2013-05-21 16:35:00,77.7,56.7,29.66,WSW,248,7.2,16.2,48,0.00,,---,0.00,VWS V14.01,2013-05-21 21:35:00,
2013-05-21 16:40:00,77.7,57.2,29.66,West,270,5.4,21.6,49,0.00,,---,0.00,VWS V14.01,2013-05-21 21:40:00,
2013-05-21 16:45:00,77.8,56.8,29.66,West,270,5.4,14.4,48,0.00,,---,0.00,VWS V14.01,2013-05-21 21:45:00,
2013-05-21 16:50:00,77.3,55.8,29.66,West,270,5.4,10.8,47,0.00,,---,0.00,VWS V14.01,2013-05-21 21:50:00,
2013-05-21 16:55:00,77.2,56.7,29.66,SW,225,5.4,16.2,49,0.00,,---,0.00,VWS V14.01,2013-05-21 21:55:00,
2013-05-21 17:00:00,77.3,56.3,29.66,West,270,5.4,12.6,48,0.00,,---,0.00,VWS V14.01,2013-05-21 22:00:00,
2013-05-21 17:05:00,77.3,56.3,29.66,WSW,248,5.4,14.4,48,0.00,,---,0.00,VWS V14.01,2013-05-21 22:05:00,
2013-05-21 17:10:00,77.3,56.8,29.65,WSW,248,3.6,12.6,49,0.00,,---,0.00,VWS V14.01,2013-05-21 22:10:00,
2013-05-21 17:15:00,77.5,56.5,29.65,SW,225,5.4,16.2,48,0.00,,---,0.00,VWS V14.01,2013-05-21 22:15:00,
2013-05-21 17:20:00,77.3,56.8,29.65,West,270,3.6,10.8,49,0.00,,---,0.00,VWS V14.01,2013-05-21 22:20:00,
2013-05-21 17:25:00,77.3,56.3,29.65,SW,225,5.4,14.4,48,0.00,,---,0.00,VWS V14.01,2013-05-21 22:25:00,
2013-05-21 17:30:00,77.1,56.7,29.65,SW,225,3.6,9.0,49,0.00,,---,0.00,VWS V14.01,2013-05-21 22:30:00,
2013-05-21 17:35:00,76.7,56.3,29.64,SW,225,3.6,12.6,49,0.00,,---,0.00,VWS V14.01,2013-05-21 22:35:00,
2013-05-21 17:40:00,76.7,56.3,29.64,SW,225,5.4,14.4,49,0.00,,---,0.00,VWS V14.01,2013-05-21 22:40:00,
2013-05-21 17:45:00,76.8,56.4,29.64,West,270,3.6,10.8,49,0.00,,---,0.00,VWS V14.01,2013-05-21 22:45:00,
2013-05-21 17:50:00,76.6,56.2,29.64,West,270,3.6,9.0,49,0.00,,---,0.00,VWS V14.01,2013-05-21 22:50:00,
2013-05-21 18:03:00,76.6,56.2,29.64,West,270,3.6,9.0,49,0.00,,---,0.00,VWS V14.01,2013-05-21 23:03:00,
2013-05-21 18:08:00,76.2,56.3,29.64,WSW,257,1.8,9.0,50,0.00,,---,0.00,VWS V14.01,2013-05-21 23:08:00,
2013-05-21 18:13:00,76.1,56.2,29.64,SSW,200,3.6,5.4,50,0.00,,---,0.00,VWS V14.01,2013-05-21 23:13:00,
2013-05-21 18:18:00,75.8,56.0,29.64,SW,219,1.8,9.0,50,0.00,,---,0.00,VWS V14.01,2013-05-21 23:18:00,
2013-05-21 18:23:00,75.6,56.3,29.64,WSW,243,3.6,5.4,51,0.00,,---,0.00,VWS V14.01,2013-05-21 23:23:00,
2013-05-21 18:28:00,75.4,55.6,29.64,WSW,256,3.6,12.6,50,0.00,,---,0.00,VWS V14.01,2013-05-21 23:28:00,
2013-05-21 18:33:00,75.7,55.9,29.64,WSW,258,3.6,7.2,50,0.00,,---,0.00,VWS V14.01,2013-05-21 23:33:00,
2013-05-21 18:38:00,75.7,55.9,29.64,West,276,1.8,7.2,50,0.00,,---,0.00,VWS V14.01,2013-05-21 23:38:00,
2013-05-21 18:43:00,75.4,56.1,29.64,South,180,3.6,9.0,51,0.00,,---,0.00,VWS V14.01,2013-05-21 23:43:00,
2013-05-21 18:48:00,75.2,55.9,29.64,South,178,9.0,9.0,51,0.00,,---,0.00,VWS V14.01,2013-05-21 23:48:00,
2013-05-21 18:53:00,75.3,56.5,29.64,SSW,200,3.6,10.8,52,0.00,,---,0.00,VWS V14.01,2013-05-21 23:53:00,
2013-05-21 18:58:00,75.4,56.1,29.64,SW,221,3.6,9.0,51,0.00,,---,0.00,VWS V14.01,2013-05-21 23:58:00,
2013-05-21 19:03:00,75.4,56.1,29.65,WSW,238,3.6,9.0,51,0.00,,---,0.00,VWS V14.01,2013-05-22 00:03:00,
2013-05-21 19:08:00,75.3,56.5,29.64,WSW,242,0.0,12.6,52,0.00,,---,0.00,VWS V14.01,2013-05-22 00:08:00,
2013-05-21 19:13:00,75.2,55.9,29.65,West,276,5.4,9.0,51,0.00,,---,0.00,VWS V14.01,2013-05-22 00:13:00,
2013-05-21 19:18:00,75.1,55.8,29.65,SW,236,1.8,7.2,51,0.00,,---,0.00,VWS V14.01,2013-05-22 00:18:00,
2013-05-21 19:23:00,74.9,55.7,29.65,WSW,250,1.8,3.6,51,0.00,,---,0.00,VWS V14.01,2013-05-22 00:23:00,
2013-05-21 19:28:00,74.7,56.0,29.65,WSW,242,1.8,3.6,52,0.00,,---,0.00,VWS V14.01,2013-05-22 00:28:00,
2013-05-21 19:33:00,74.6,55.9,29.66,West,271,3.6,7.2,52,0.00,,---,0.00,VWS V14.01,2013-05-22 00:33:00,
2013-05-21 19:38:00,74.4,55.7,29.66,West,262,0.0,3.6,52,0.00,,---,0.00,VWS V14.01,2013-05-22 00:38:00,
2013-05-21 19:43:00,74.2,56.0,29.66,SW,224,1.8,3.6,53,0.00,,---,0.00,VWS V14.01,2013-05-22 00:43:00,
2013-05-21 19:48:00,74.0,55.8,29.66,West,269,0.0,3.6,53,0.00,,---,0.00,VWS V14.01,2013-05-22 00:48:00,
2013-05-21 19:53:00,73.8,56.1,29.66,SW,224,1.8,5.4,54,0.00,,---,0.00,VWS V14.01,2013-05-22 00:53:00,
2013-05-21 19:58:00,73.5,56.3,29.66,WSW,246,0.0,5.4,55,0.00,,---,0.00,VWS V14.01,2013-05-22 00:58:00,
2013-05-21 20:03:00,73.4,56.2,29.67,West,259,0.0,3.6,55,0.00,,---,0.00,VWS V14.01,2013-05-22 01:03:00,
2013-05-21 20:08:00,73.2,56.0,29.66,SW,231,5.4,5.4,55,0.00,,---,0.00,VWS V14.01,2013-05-22 01:08:00,
2013-05-21 20:13:00,72.9,56.2,29.66,SW,222,0.0,1.8,56,0.00,,---,0.00,VWS V14.01,2013-05-22 01:13:00,
2013-05-21 20:18:00,72.6,56.4,29.67,South,172,0.0,0.0,57,0.00,,---,0.00,VWS V14.01,2013-05-22 01:18:00,
2013-05-21 20:23:00,72.4,56.2,29.67,SSW,197,0.0,1.8,57,0.00,,---,0.00,VWS V14.01,2013-05-22 01:23:00,
2013-05-21 20:28:00,72.2,56.5,29.66,SSW,208,0.0,1.8,58,0.00,,---,0.00,VWS V14.01,2013-05-22 01:28:00,
2013-05-21 20:33:00,71.9,56.2,29.66,SSW,205,0.0,0.0,58,0.00,,---,0.00,VWS V14.01,2013-05-22 01:33:00,
2013-05-21 20:38:00,71.6,56.3,29.66,SW,225,0.0,0.0,59,0.00,,---,0.00,VWS V14.01,2013-05-22 01:38:00,
2013-05-21 20:43:00,71.4,56.2,29.66,SW,214,0.0,0.0,59,0.00,,---,0.00,VWS V14.01,2013-05-22 01:43:00,
2013-05-21 20:48:00,71.1,56.3,29.67,SSW,211,0.0,0.0,60,0.00,,---,0.00,VWS V14.01,2013-05-22 01:48:00,
2013-05-21 20:53:00,71.0,56.2,29.67,SSW,205,0.0,0.0,60,0.00,,---,0.00,VWS V14.01,2013-05-22 01:53:00,
2013-05-21 20:58:00,70.8,56.0,29.67,SW,221,0.0,0.0,60,0.00,,---,0.00,VWS V14.01,2013-05-22 01:58:00,
2013-05-21 21:03:00,70.6,56.3,29.67,SSE,159,0.0,0.0,60,0.00,,---,0.00,VWS V14.01,2013-05-22 02:03:00,
2013-05-21 21:08:00,70.3,56.0,29.67,SSE,159,0.0,0.0,60,0.00,,---,0.00,VWS V14.01,2013-05-22 02:08:00,
2013-05-21 21:13:00,70.1,56.2,29.66,SSE,159,0.0,0.0,61,0.00,,---,0.00,VWS V14.01,2013-05-22 02:13:00,
2013-05-21 21:18:00,69.9,56.0,29.66,SSE,167,0.0,0.0,61,0.00,,---,0.00,VWS V14.01,2013-05-22 02:18:00,
2013-05-21 21:23:00,69.5,56.1,29.66,SSE,167,0.0,0.0,62,0.00,,---,0.00,VWS V14.01,2013-05-22 02:23:00,
2013-05-21 21:28:00,68.9,55.9,29.66,SSE,167,0.0,0.0,63,0.00,,---,0.00,VWS V14.01,2013-05-22 02:28:00,
2013-05-21 21:33:00,68.4,56.2,29.66,SSE,167,0.0,0.0,65,0.00,,---,0.00,VWS V14.01,2013-05-22 02:33:00,
2013-05-21 21:38:00,68.0,56.2,29.65,SSE,167,0.0,0.0,66,0.00,,---,0.00,VWS V14.01,2013-05-22 02:38:00,
2013-05-21 21:43:00,67.7,56.3,29.65,SSE,167,0.0,0.0,67,0.00,,---,0.00,VWS V14.01,2013-05-22 02:43:00,
2013-05-21 21:48:00,67.2,56.2,29.65,SSE,167,0.0,0.0,68,0.00,,---,0.00,VWS V14.01,2013-05-22 02:48:00,
2013-05-21 21:53:00,66.7,56.2,29.65,SSE,167,0.0,0.0,69,0.00,,---,0.00,VWS V14.01,2013-05-22 02:53:00,
2013-05-21 21:58:00,66.4,55.9,29.65,SSE,167,0.0,0.0,69,0.00,,---,0.00,VWS V14.01,2013-05-22 02:58:00,
2013-05-21 22:03:00,66.0,56.2,29.65,SSE,167,0.0,0.0,71,0.00,,---,0.00,VWS V14.01,2013-05-22 03:03:00,
2013-05-21 22:08:00,65.7,55.9,29.65,SSE,167,0.0,0.0,71,0.00,,---,0.00,VWS V14.01,2013-05-22 03:08:00,
2013-05-21 22:13:00,65.4,55.6,29.65,SSE,167,0.0,0.0,71,0.00,,---,0.00,VWS V14.01,2013-05-22 03:13:00,
2013-05-21 22:18:00,65.0,55.6,29.65,SSE,167,0.0,0.0,72,0.00,,---,0.00,VWS V14.01,2013-05-22 03:18:00,
2013-05-21 22:23:00,64.6,55.6,29.66,SSE,167,0.0,0.0,73,0.00,,---,0.00,VWS V14.01,2013-05-22 03:23:00,
2013-05-21 22:28:00,64.2,55.5,29.65,SSE,167,0.0,0.0,73,0.00,,---,0.00,VWS V14.01,2013-05-22 03:28:00,
2013-05-21 22:33:00,63.8,55.2,29.66,SSE,167,0.0,0.0,73,0.00,,---,0.00,VWS V14.01,2013-05-22 03:33:00,
2013-05-21 22:38:00,63.4,55.1,29.65,SSE,167,0.0,0.0,74,0.00,,---,0.00,VWS V14.01,2013-05-22 03:38:00,
2013-05-21 22:43:00,63.1,55.2,29.65,SSE,167,0.0,0.0,75,0.00,,---,0.00,VWS V14.01,2013-05-22 03:43:00,
2013-05-21 22:48:00,62.8,55.2,29.65,SSE,167,0.0,0.0,76,0.00,,---,0.00,VWS V14.01,2013-05-22 03:48:00,
2013-05-21 22:53:00,62.6,55.7,29.65,SSE,167,0.0,0.0,78,0.00,,---,0.00,VWS V14.01,2013-05-22 03:53:00,
2013-05-21 22:58:00,62.6,55.7,29.65,SSE,167,0.0,0.0,78,0.00,,---,0.00,VWS V14.01,2013-05-22 03:58:00,
2013-05-21 23:01:00,62.6,55.7,29.65,SSE,167,0.0,0.0,78,0.00,,---,0.00,VWS V14.01,2013-05-22 04:01:00,
2013-05-21 23:06:00,62.7,55.8,29.66,SSE,167,0.0,0.0,78,0.00,,---,0.00,VWS V14.01,2013-05-22 04:06:00,
2013-05-21 23:11:00,62.5,55.6,29.66,SSE,167,0.0,0.0,78,0.00,,---,0.00,VWS V14.01,2013-05-22 04:11:00,
2013-05-21 23:16:00,62.4,55.8,29.66,SSE,167,0.0,0.0,79,0.00,,---,0.00,VWS V14.01,2013-05-22 04:16:00,
2013-05-21 23:21:00,62.3,55.7,29.65,SSE,167,0.0,0.0,79,0.00,,---,0.00,VWS V14.01,2013-05-22 04:21:00,
2013-05-21 23:26:00,62.3,55.7,29.65,SSE,167,0.0,0.0,79,0.00,,---,0.00,VWS V14.01,2013-05-22 04:26:00,
2013-05-21 23:31:00,62.3,56.0,29.65,SSE,167,0.0,0.0,80,0.00,,---,0.00,VWS V14.01,2013-05-22 04:31:00,
2013-05-21 23:36:00,62.2,55.6,29.65,SSE,167,0.0,0.0,79,0.00,,---,0.00,VWS V14.01,2013-05-22 04:36:00,
2013-05-21 23:41:00,62.0,55.8,29.65,SSE,167,0.0,0.0,80,0.00,,---,0.00,VWS V14.01,2013-05-22 04:41:00,
2013-05-21 23:46:00,61.9,55.7,29.65,SSE,167,0.0,0.0,80,0.00,,---,0.00,VWS V14.01,2013-05-22 04:46:00,
2013-05-21 23:51:00,61.9,56.0,29.65,SSE,167,0.0,0.0,81,0.00,,---,0.00,VWS V14.01,2013-05-22 04:51:00,
2013-05-21 23:56:00,61.9,55.7,29.65,SSE,167,0.0,0.0,80,0.00,,---,0.00,VWS V14.01,2013-05-22 04:56:00,